When you browse on this site, cookies collect data to enhance your experience and personalize the content and advertising you see.
Visit our Privacy Policy to learn more. By continuing to use the site, you agree to this use of cookies and data.
  • Em Portugal
  • Lista de países
  • Para 7 dias
  • Temperatura da água
  • Mapas de satélite
  • Mapa do tempo
  • Widgets de tempo
  • user-avatar
    Iniciar Sessão

    Previsão horária em Kerman

    Hoje, 18 Janeiro, Sexta-feira

    Tempo Temperatura Precipitação Vento Pressão Humidade
    00:00 +8°C° 0 mm 12 m/s 600 mmHg 55%
    01:00 +8°C° 0 mm 13 m/s 600 mmHg 56%
    02:00 +7°C° 0 mm 11 m/s 600 mmHg 58%
    03:00 +7°C° 0 mm 9 m/s 600 mmHg 60%
    04:00 +7°C° 0 mm 6 m/s 600 mmHg 63%
    05:00 +6°C° 0 mm 5 m/s 600 mmHg 65%
    06:00 +6°C° 0 mm 4 m/s 600 mmHg 67%
    07:00 +6°C° 0 mm 2 m/s 600 mmHg 70%
    08:00 +7°C° 0 mm 3 m/s 601 mmHg 58%
    09:00 +8°C° 0 mm 4 m/s 602 mmHg 46%
    10:00 +10°C° 0 mm 3 m/s 603 mmHg 27%
    11:00 +10°C° 0 mm 6 m/s 603 mmHg 24%
    12:00 +12°C° 0 mm 9 m/s 603 mmHg 20%
    13:00 +13°C° 0 mm 11 m/s 603 mmHg 16%
    14:00 +13°C° 0 mm 11 m/s 602 mmHg 15%
    15:00 +12°C° 0 mm 12 m/s 602 mmHg 13%
    16:00 +12°C° 0 mm 12 m/s 601 mmHg 11%
    17:00 +11°C° 0 mm 10 m/s 601 mmHg 14%
    18:00 +10°C° 0 mm 8 m/s 601 mmHg 16%
    19:00 +8°C° 0 mm 6 m/s 601 mmHg 19%
    20:00 +8°C° 0 mm 6 m/s 601 mmHg 23%
    21:00 +7°C° 0 mm 5 m/s 601 mmHg 27%
    22:00 +6°C° 0 mm 5 m/s 601 mmHg 32%
    23:00 +6°C° 0 mm 4 m/s 600 mmHg 38%

    Amanhã, 19 Janeiro, Sábado

    Tempo Temperatura Precipitação Vento Pressão Humidade
    00:00 +5°C° 0 mm 4 m/s 600 mmHg 44%
    01:00 +5°C° 0 mm 3 m/s 600 mmHg 50%
    02:00 +4°C° 0 mm 3 m/s 600 mmHg 49%
    03:00 +4°C° 0 mm 3 m/s 599 mmHg 49%
    04:00 +3°C° 0 mm 3 m/s 599 mmHg 49%
    05:00 +3°C° 0 mm 3 m/s 599 mmHg 47%
    06:00 +3°C° 0 mm 3 m/s 599 mmHg 45%
    07:00 +3°C° 0 mm 3 m/s 599 mmHg 44%
    08:00 +3°C° 0 mm 6 m/s 600 mmHg 34%
    09:00 +5°C° 0 mm 8 m/s 600 mmHg 24%
    10:00 +7°C° 0 mm 10 m/s 601 mmHg 15%
    11:00 +8°C° 0 mm 11 m/s 601 mmHg 13%
    12:00 +8°C° 0 mm 12 m/s 601 mmHg 11%
    13:00 +9°C° 0 mm 13 m/s 600 mmHg 10%
    14:00 +8°C° 0 mm 12 m/s 600 mmHg 10%
    15:00 +8°C° 0 mm 12 m/s 600 mmHg 10%
    16:00 +7°C° 0 mm 11 m/s 600 mmHg 10%
    17:00 +5°C° 0 mm 9 m/s 600 mmHg 15%
    18:00 +4°C° 0 mm 7 m/s 600 mmHg 20%
    19:00 +2°C° 0 mm 5 m/s 600 mmHg 24%
    20:00 +1°C° 0 mm 5 m/s 600 mmHg 29%
    21:00 0°C° 0 mm 5 m/s 600 mmHg 34%
    22:00 -1°C° 0 mm 5 m/s 601 mmHg 38%
    23:00 -2°C° 0 mm 4 m/s 601 mmHg 41%

    Depois de amanhã, 20 Janeiro, Domingo

    Tempo Temperatura Precipitação Vento Pressão Humidade
    00:00 -1°C° 0 mm 3 m/s 601 mmHg 44%
    01:00 0°C° 0 mm 1 m/s 601 mmHg 47%
    02:00 0°C° 0 mm 1 m/s 601 mmHg 49%
    03:00 -1°C° 0 mm 1 m/s 601 mmHg 51%
    04:00 -1°C° 0 mm 1 m/s 601 mmHg 53%
    05:00 -1°C° 0 mm 1 m/s 602 mmHg 54%
    06:00 -1°C° 0 mm 1 m/s 602 mmHg 55%
    07:00 -2°C° 0 mm 1 m/s 602 mmHg 55%
    08:00 -1°C° 0 mm 1 m/s 603 mmHg 51%
    09:00 -1°C° 0 mm 0 m/s 603 mmHg 47%
    10:00 0°C° 0 mm 0 m/s 604 mmHg 42%
    11:00 +2°C° 0 mm 1 m/s 604 mmHg 38%
    12:00 +3°C° 0 mm 1 m/s 604 mmHg 34%
    13:00 +4°C° 0 mm 1 m/s 603 mmHg 30%
    14:00 +3°C° 0 mm 2 m/s 603 mmHg 28%
    15:00 +3°C° 0 mm 2 m/s 603 mmHg 27%
    16:00 +4°C° 0 mm 2 m/s 603 mmHg 25%
    17:00 +3°C° 0 mm 2 m/s 603 mmHg 26%
    18:00 +3°C° 0 mm 2 m/s 603 mmHg 28%
    19:00 +4°C° 0 mm 1 m/s 604 mmHg 29%
    20:00 +3°C° 0 mm 1 m/s 604 mmHg 31%
    21:00 +3°C° 0 mm 1 m/s 604 mmHg 33%
    22:00 +1°C° 0 mm 0 m/s 604 mmHg 36%
    23:00 +1°C° 0 mm 0 m/s 603 mmHg 36%

    21 Janeiro, Segunda-feira

    Tempo Temperatura Precipitação Vento Pressão Humidade
    00:00 0°C° 0 mm 0 m/s 603 mmHg 37%
    01:00 0°C° 0 mm 0 m/s 603 mmHg 38%
    02:00 0°C° 0 mm 0 m/s 603 mmHg 38%
    03:00 -1°C° 0 mm 0 m/s 603 mmHg 38%
    04:00 -1°C° 0 mm 0 m/s 603 mmHg 38%
    05:00 -1°C° 0 mm 0 m/s 603 mmHg 37%
    06:00 -1°C° 0 mm 0 m/s 603 mmHg 37%
    07:00 -1°C° 0 mm 0 m/s 603 mmHg 36%
    08:00 0°C° 0 mm 0 m/s 603 mmHg 32%
    09:00 +2°C° 0 mm 0 m/s 604 mmHg 28%
    10:00 +3°C° 0 mm 0 m/s 605 mmHg 24%
    11:00 +4°C° 0 mm 0 m/s 604 mmHg 22%
    12:00 +6°C° 0 mm 1 m/s 604 mmHg 20%
    13:00 +7°C° 0 mm 1 m/s 604 mmHg 18%
    14:00 +7°C° 0 mm 1 m/s 604 mmHg 17%
    15:00 +7°C° 0 mm 2 m/s 603 mmHg 16%
    16:00 +7°C° 0 mm 2 m/s 603 mmHg 16%
    17:00 +6°C° 0 mm 2 m/s 603 mmHg 18%
    18:00 +7°C° 0 mm 1 m/s 603 mmHg 20%
    19:00 +6°C° 0 mm 1 m/s 603 mmHg 22%
    20:00 +6°C° 0 mm 1 m/s 603 mmHg 23%
    21:00 +5°C° 0 mm 1 m/s 603 mmHg 23%
    22:00 +4°C° 0 mm 0 m/s 602 mmHg 24%
    23:00 +4°C° 0 mm 0 m/s 602 mmHg 23%

    22 Janeiro, Terça-feira

    Tempo Temperatura Precipitação Vento Pressão Humidade
    00:00 +4°C° 0 mm 0 m/s 601 mmHg 23%
    01:00 +4°C° 0 mm 0 m/s 601 mmHg 22%
    02:00 +4°C° 0 mm 0 m/s 601 mmHg 22%
    03:00 +4°C° 0 mm 0 m/s 600 mmHg 22%
    04:00 +5°C° 0 mm 1 m/s 600 mmHg 21%
    05:00 +4°C° 0 mm 1 m/s 600 mmHg 23%
    06:00 +4°C° 0 mm 1 m/s 600 mmHg 25%
    07:00 +3°C° 0 mm 1 m/s 600 mmHg 26%
    08:00 +5°C° 0 mm 1 m/s 601 mmHg 25%
    09:00 +5°C° 0 mm 2 m/s 602 mmHg 24%
    10:00 +7°C° 0 mm 2 m/s 602 mmHg 22%
    11:00 +8°C° 0 mm 3 m/s 602 mmHg 23%
    12:00 +9°C° 0 mm 3 m/s 602 mmHg 23%
    13:00 +10°C° 0 mm 4 m/s 602 mmHg 23%
    14:00 +10°C° 0 mm 4 m/s 601 mmHg 23%
    15:00 +9°C° 0 mm 5 m/s 601 mmHg 23%
    16:00 +9°C° 0 mm 5 m/s 601 mmHg 22%
    17:00 +8°C° 0 mm 5 m/s 601 mmHg 25%
    18:00 +8°C° 0 mm 4 m/s 601 mmHg 28%
    19:00 +8°C° 0 mm 3 m/s 601 mmHg 30%
    20:00 +7°C° 0 mm 3 m/s 601 mmHg 32%
    21:00 +7°C° 0 mm 2 m/s 601 mmHg 34%
    22:00 +6°C° 0 mm 2 m/s 601 mmHg 36%
    23:00 +6°C° 0 mm 2 m/s 600 mmHg 39%

    23 Janeiro, Quarta-feira

    Tempo Temperatura Precipitação Vento Pressão Humidade
    00:00 +5°C° 0 mm 2 m/s 600 mmHg 42%
    01:00 +4°C° 0 mm 3 m/s 600 mmHg 46%
    02:00 +4°C° 0 mm 2 m/s 600 mmHg 47%
    03:00 +4°C° 0 mm 2 m/s 600 mmHg 49%
    04:00 +3°C° 0 mm 2 m/s 600 mmHg 51%
    05:00 +3°C° 0 mm 2 m/s 600 mmHg 52%
    06:00 +3°C° 0 mm 1 m/s 600 mmHg 52%
    07:00 +3°C° 0 mm 1 m/s 601 mmHg 52%
    08:00 +4°C° 0 mm 1 m/s 601 mmHg 48%
    09:00 +4°C° 0 mm 1 m/s 602 mmHg 44%
    10:00 +5°C° 0 mm 1 m/s 603 mmHg 40%
    11:00 +6°C° 0 mm 1 m/s 603 mmHg 38%
    12:00 +7°C° 0 mm 1 m/s 602 mmHg 36%
    13:00 +8°C° 0 mm 1 m/s 602 mmHg 34%
    14:00 +7°C° 0 mm 2 m/s 602 mmHg 33%
    15:00 +7°C° 0 mm 2 m/s 602 mmHg 32%
    16:00 +8°C° 0 mm 2 m/s 602 mmHg 31%
    17:00 +7°C° 0 mm 2 m/s 602 mmHg 32%
    18:00 +7°C° 0 mm 2 m/s 602 mmHg 33%
    19:00 +6°C° 0 mm 2 m/s 603 mmHg 34%
    20:00 +6°C° 0 mm 2 m/s 603 mmHg 36%
    21:00 +5°C° 0 mm 2 m/s 603 mmHg 37%
    22:00 +6°C° 0 mm 1 m/s 603 mmHg 39%
    23:00 +5°C° 0 mm 1 m/s 602 mmHg 40%
    Mostrar mais